Tracking 29892 objects as of 21-Nov-2024
HD Live streaming from Space Station
objects crossing your sky now

FENGYUN 1C DEB

Track FENGYUN 1C DEB now!
10-day predictions


NORAD ID: 30265
Int'l Code: 1999-025YA
Perigee: 717.1 km
Apogee: 769.2 km
Inclination: 98.7 °
Period: 99.5 minutes
Semi major axis: 7114 km
RCS: 0.0262 m2 (small)
Launch date: May 10, 1999
Source: People's Republic of China (PRC)
Launch site: Taiyaun Space Center, China (TSC)

Note: This is SATELLITE DEBRIS
Your satellite tracking list
Your tracking list is empty




NASA's NSSDC Master Catalog

Two Line Element Set (TLE):
1 30265U 99025YA  24324.22887038  .00012941  00000-0  35464-2 0  9995
2 30265  98.6671  54.5179 0036609 119.5589 268.3806 14.46845693927706
Source of the keplerian elements: AFSPC